Danbury, CT

6:31 AM EST on February 22, 2017 (GMT -0500)
Danbury Municipal

Weather History for KDXR - March, 2013

Change the Weather History Date:

Wednesday, March 13, 2013

  Actual Average Record
Temperature  
Mean Temperature 38 °F -  
Max Temperature 48 °F 43 °F 73 °F (2012)
Min Temperature 30 °F 27 °F 10 °F (1998)
Degree Days  
Heating Degree Days 27    
Moisture  
Dew Point 26 °F    
Average Humidity 62    
Maximum Humidity 92    
Minimum Humidity 34    
Precipitation  
Precipitation 0.00 in - - ()
Sea Level Pressure  
Sea Level Pressure 29.84 in    
Wind  
Wind Speed 5 mph (WNW)    
Max Wind Speed 13 mph    
Max Gust Speed 20 mph    
Visibility 10 miles    
Events      
Averages and records for this station are not official NWS values.
T = Trace of Precipitation, MM = Missing Value Source: NWS Daily Summary

Daily Weather History Graph

Daily Weather History Graph

Search for Another Location

Airport or City:

Trip Planner

Search our weather history database for the weather conditions in past years. The results will help you decide how hot, cold, wet, or windy it might be!

Date:

Astronomy

Mar. 13, 2013 Rise Set
Actual Time 7:08 AM EDT 6:58 PM EDT
Civil Twilight 6:41 AM EDT 7:26 PM EDT
Nautical Twilight 6:09 AM EDT 7:58 PM EDT
Astronomical Twilight 5:36 AM EDT 8:30 PM EDT
Moon 7:45 AM EDT (3/13) 9:14 PM EDT (3/13)
Length of Visible Light 12h 45m
Length of Day
11h 49m
Waxing Crescent, 4% of the Moon is Illuminated
Mar 13
Waxing Crescent
Mar 19
First Quarter
Mar 27
Full
Apr 3
Last Quarter
Apr 10
New

Hourly Weather History & Observations

Time (EDT) Temp. Windchill Dew Point Humidity Pressure Visibility Wind Dir Wind Speed Gust Speed Precip Events Conditions
12:53 AM 39.9 °F 35.8 °F 33.1 °F 77% 29.83 in 10.0 mi NNW 5.8 mph - N/A   Clear
1:53 AM 39.9 °F 33.9 °F 32.0 °F 73% 29.84 in 10.0 mi North 9.2 mph - N/A   Mostly Cloudy
2:14 AM 39.2 °F 35.0 °F 32.0 °F 75% 29.84 in 10.0 mi NNW 5.8 mph - N/A   Scattered Clouds
3:53 AM 36.0 °F - 30.9 °F 82% 29.84 in 10.0 mi Calm Calm - N/A   Clear
4:53 AM 36.0 °F - 30.9 °F 82% 29.85 in 10.0 mi Calm Calm - N/A   Overcast
5:53 AM 34.0 °F - 30.0 °F 85% 29.86 in 10.0 mi Calm Calm - N/A   Partly Cloudy
6:53 AM 30.0 °F - 28.0 °F 92% 29.87 in 9.0 mi Calm Calm - N/A   Clear
7:53 AM 32.0 °F - 30.0 °F 92% 29.87 in 8.0 mi Calm Calm - N/A   Clear
8:53 AM 37.9 °F 35.5 °F 28.0 °F 68% 29.87 in 10.0 mi NNW 3.5 mph - N/A   Clear
9:53 AM 39.9 °F 35.1 °F 27.0 °F 60% 29.86 in 10.0 mi NNW 6.9 mph - N/A   Clear
10:53 AM 42.1 °F 40.2 °F 28.0 °F 58% 29.86 in 10.0 mi Variable 3.5 mph - N/A   Partly Cloudy
11:53 AM 44.1 °F 40.8 °F 26.1 °F 49% 29.85 in 10.0 mi Variable 5.8 mph - N/A   Scattered Clouds
12:53 PM 45.0 °F 38.9 °F 23.0 °F 42% 29.83 in 10.0 mi NNW 12.7 mph 18.4 mph N/A   Clear
1:53 PM 46.0 °F 41.4 °F 24.1 °F 42% 29.81 in 10.0 mi WNW 9.2 mph 17.3 mph N/A   Partly Cloudy
2:53 PM 46.0 °F 41.4 °F 23.0 °F 40% 29.79 in 10.0 mi West 9.2 mph 19.6 mph N/A   Scattered Clouds
3:53 PM 46.9 °F - 19.9 °F 34% 29.78 in 10.0 mi West 12.7 mph 18.4 mph N/A   Mostly Cloudy
4:53 PM 46.0 °F 43.1 °F 19.9 °F 35% 29.78 in 10.0 mi WNW 5.8 mph - N/A   Mostly Cloudy
5:53 PM 45.0 °F 40.1 °F 21.9 °F 40% 29.79 in 10.0 mi NW 9.2 mph 18.4 mph N/A   Mostly Cloudy
6:53 PM 44.1 °F 41.5 °F 21.0 °F 40% 29.81 in 10.0 mi West 4.6 mph - N/A   Overcast
7:53 PM 42.1 °F 36.6 °F 23.0 °F 47% 29.83 in 10.0 mi WNW 9.2 mph 19.6 mph 0.00 in   Overcast
8:53 PM 39.0 °F 32.3 °F 25.0 °F 57% 29.84 in 10.0 mi West 10.4 mph 17.3 mph N/A   Scattered Clouds
9:53 PM 36.0 °F 32.1 °F 26.1 °F 67% 29.85 in 10.0 mi West 4.6 mph - N/A   Scattered Clouds
10:53 PM 35.1 °F 30.1 °F 26.1 °F 70% 29.85 in 10.0 mi WSW 5.8 mph - N/A   Partly Cloudy
11:53 PM 34.0 °F 31.0 °F 25.0 °F 70% 29.85 in 10.0 mi WSW 3.5 mph - N/A   Scattered Clouds